| time (UTC) | temp F | wind direction | speed MPH | gust MPH | rain 1hr in | rain 24hr in | rain mn in | humidity % | barometer mb |
| 20260507061517 | 52 | 321 | 2.0 | 8.0 | 0.00 | 0.01 | 0.01 | 80 | 1021.7 |
| 20260507060020 | 52 | 307 | 1.0 | 7.0 | 0.00 | 0.01 | 0.01 | 81 | 1021.7 |
| 20260507054505 | 53 | 287 | 1.0 | 12.0 | 0.00 | 0.01 | 0.01 | 81 | 1021.7 |
| 20260507053006 | 53 | 303 | 0.0 | 7.0 | 0.00 | 0.01 | 0.01 | 82 | 1021.8 |
| 20260507051504 | 53 | 308 | 1.0 | 7.0 | 0.00 | 0.01 | 0.01 | 81 | 1021.8 |
| 20260507044506 | 54 | 291 | 0.0 | 7.0 | 0.00 | 0.01 | 0.01 | 80 | 1021.9 |
| 20260507043004 | 54 | 294 | 2.0 | 7.0 | 0.00 | 0.01 | 0.01 | 80 | 1021.9 |
| 20260507041504 | 54 | 304 | 1.0 | 7.0 | 0.00 | 0.01 | 0.01 | 80 | 1021.8 |
| 20260507040006 | 54 | 297 | 3.0 | 11.0 | 0.00 | 0.01 | 0.01 | 80 | 1021.6 |
| 20260507034503 | 54 | 295 | 3.0 | 9.0 | 0.00 | 0.01 | 0.01 | 81 | 1021.5 |
| 20260507033008 | 55 | 297 | 5.0 | 10.0 | 0.00 | 0.01 | 0.01 | 80 | 1021.4 |
| 20260507031506 | 55 | 290 | 5.0 | 10.0 | 0.00 | 0.01 | 0.01 | 80 | 1021.3 |
| 20260507030005 | 55 | 311 | 3.0 | 12.0 | 0.00 | 0.01 | 0.01 | 80 | 1021.1 |
| 20260507024504 | 56 | 296 | 6.0 | 11.0 | 0.00 | 0.01 | 0.01 | 80 | 1021.1 |
| 20260507023004 | 56 | 311 | 6.0 | 13.0 | 0.00 | 0.01 | 0.01 | 79 | 1021.1 |
| 20260507021504 | 57 | 302 | 8.0 | 14.0 | 0.00 | 0.01 | 0.01 | 79 | 1021.0 |
| 20260507020005 | 58 | 294 | 8.0 | 13.0 | 0.00 | 0.01 | 0.01 | 78 | 1021.0 |
| 20260507014536 | 58 | 287 | 3.0 | 13.0 | 0.00 | 0.01 | 0.01 | 78 | 1020.9 |
| 20260507013005 | 58 | 288 | 7.0 | 12.0 | 0.00 | 0.01 | 0.01 | 77 | 1020.7 |
| 20260507011505 | 58 | 264 | 4.0 | 10.0 | 0.00 | 0.01 | 0.01 | 76 | 1020.8 |
| 20260507010006 | 58 | 266 | 6.0 | 12.0 | 0.00 | 0.01 | 0.01 | 77 | 1021.0 |
| 20260507004539 | 58 | 262 | 5.0 | 11.0 | 0.00 | 0.01 | 0.01 | 77 | 1021.0 |
| 20260507003008 | 59 | 268 | 6.0 | 11.0 | 0.00 | 0.01 | 0.01 | 77 | 1021.1 |
| 20260507001508 | 59 | 248 | 8.0 | 13.0 | 0.00 | 0.01 | 0.01 | 76 | 1021.0 |
| 20260507000008 | 59 | 242 | 8.0 | 13.0 | 0.00 | 0.01 | 0.01 | 77 | 1021.0 |
| 20260506234507 | 60 | 258 | 8.0 | 13.0 | 0.00 | 0.01 | 0.01 | 75 | 1021.0 |
| 20260506233008 | 60 | 226 | 7.0 | 14.0 | 0.00 | 0.01 | 0.01 | 75 | 1020.9 |
| 20260506231510 | 60 | 234 | 6.0 | 13.0 | 0.00 | 0.01 | 0.01 | 75 | 1021.0 |
| 20260506230009 | 60 | 269 | 10.0 | 13.0 | 0.00 | 0.01 | 0.01 | 74 | 1021.0 |
| 20260506224512 | 60 | 242 | 7.0 | 11.0 | 0.00 | 0.01 | 0.01 | 75 | 1021.0 |
| 20260506223009 | 60 | 206 | 6.0 | 11.0 | 0.00 | 0.01 | 0.01 | 73 | 1021.1 |
| 20260506221510 | 60 | 248 | 8.0 | 11.0 | 0.00 | 0.01 | 0.01 | 75 | 1021.3 |
| 20260506214513 | 60 | 212 | 4.0 | 8.0 | 0.00 | 0.01 | 0.01 | 72 | 1021.1 |
| 20260506213011 | 60 | 169 | 4.0 | 12.0 | 0.00 | 0.01 | 0.01 | 75 | 1021.2 |
| 20260506211511 | 60 | 209 | 3.0 | 10.0 | 0.00 | 0.01 | 0.01 | 76 | 1021.3 |
| 20260506204518 | 59 | 165 | 4.0 | 16.0 | 0.00 | 0.01 | 0.01 | 79 | 1021.2 |
| 20260506203004 | 59 | 189 | 7.0 | 13.0 | 0.00 | 0.01 | 0.01 | 80 | 1021.3 |
| 20260506200012 | 58 | 192 | 5.0 | 11.0 | 0.00 | 0.01 | 0.01 | 79 | 1021.1 |
| 20260506191516 | 57 | 236 | 1.0 | 9.0 | 0.00 | 0.01 | 0.01 | 79 | 1021.2 |
| 20260506190014 | 57 | 195 | 5.0 | 9.0 | 0.00 | 0.01 | 0.01 | 80 | 1021.1 |
| 20260506184515 | 56 | 172 | 4.0 | 14.0 | 0.00 | 0.01 | 0.01 | 82 | 1021.0 |
| 20260506180015 | 54 | 228 | 4.0 | 7.0 | 0.00 | 0.01 | 0.01 | 89 | 1021.1 |
| 20260506174514 | 54 | 246 | 2.0 | 5.0 | 0.00 | 0.01 | 0.01 | 89 | 1021.2 |
| 20260506173016 | 54 | 213 | 4.0 | 10.0 | 0.00 | 0.01 | 0.01 | 88 | 1021.1 |
| 20260506170021 | 54 | 190 | 7.0 | 11.0 | 0.00 | 0.01 | 0.01 | 89 | 1020.9 |
| 20260506164518 | 54 | 174 | 6.0 | 10.0 | 0.00 | 0.01 | 0.01 | 90 | 1020.7 |
| 20260506163030 | 54 | 179 | 4.0 | 10.0 | 0.00 | 0.01 | 0.01 | 92 | 1020.7 |
| 20260506160020 | 53 | 167 | 7.0 | 11.0 | 0.00 | 0.01 | 0.01 | 94 | 1020.5 |
| 20260506154518 | 53 | 155 | 3.0 | 9.0 | 0.00 | 0.01 | 0.01 | 95 | 1020.3 |
| 20260506153016 | 52 | 105 | 0.0 | 2.0 | 0.00 | 0.01 | 0.01 | 96 | 1020.4 |
| 20260506151516 | 52 | 105 | 0.0 | 0.0 | 0.00 | 0.01 | 0.01 | 96 | 1020.4 |
| 20260506150016 | 52 | 105 | 0.0 | 1.0 | 0.00 | 0.01 | 0.01 | 96 | 1020.5 |
| 20260506144517 | 52 | 105 | 3.0 | 7.0 | 0.00 | 0.01 | 0.01 | 96 | 1019.7 |
| 20260506143018 | 51 | 321 | 2.0 | 4.0 | 0.01 | 0.01 | 0.01 | 96 | 1019.9 |
| 20260506141518 | 51 | 321 | 0.0 | 0.0 | 0.01 | 0.01 | 0.01 | 95 | 1020.2 |
| 20260506140017 | 51 | 321 | 0.0 | 3.0 | 0.01 | 0.01 | 0.01 | 95 | 1020.4 |
| 20260506134515 | 51 | 321 | 0.0 | 3.0 | 0.01 | 0.01 | 0.01 | 95 | 1020.1 |
| 20260506133012 | 51 | 321 | 2.0 | 5.0 | 0.00 | 0.00 | 0.00 | 95 | 1020.1 |
| 20260506131515 | 51 | 321 | 1.0 | 3.0 | 0.00 | 0.00 | 0.00 | 95 | 1019.6 |
| 20260506130015 | 52 | 321 | 0.0 | 2.0 | 0.00 | 0.00 | 0.00 | 95 | 1019.6 |
| 20260506124517 | 52 | 321 | 0.0 | 0.0 | 0.00 | 0.00 | 0.00 | 94 | 1019.4 |
| 20260506123017 | 52 | 321 | 0.0 | 0.0 | 0.00 | 0.00 | 0.00 | 94 | 1019.3 |
| 20260506121515 | 52 | 321 | 0.0 | 0.0 | 0.00 | 0.00 | 0.00 | 94 | 1019.2 |
| 20260506120018 | 52 | 321 | 0.0 | 0.0 | 0.00 | 0.00 | 0.00 | 93 | 1019.3 |
| 20260506111517 | 52 | 321 | 0.0 | 4.0 | 0.00 | 0.00 | 0.00 | 91 | 1019.1 |
| 20260506110016 | 53 | 321 | 0.0 | 4.0 | 0.00 | 0.00 | 0.00 | 90 | 1019.1 |
| 20260506104515 | 53 | 321 | 2.0 | 4.0 | 0.00 | 0.00 | 0.00 | 89 | 1018.9 |
| 20260506103020 | 53 | 321 | 3.0 | 4.0 | 0.00 | 0.00 | 0.00 | 88 | 1018.7 |
| 20260506101519 | 54 | 321 | 0.0 | 2.0 | 0.00 | 0.00 | 0.00 | 88 | 1018.6 |
| 20260506100018 | 54 | 321 | 0.0 | 3.0 | 0.00 | 0.00 | 0.00 | 88 | 1018.4 |
| 20260506091516 | 54 | 321 | 0.0 | 3.0 | 0.00 | 0.00 | 0.00 | 88 | 1018.3 |
| 20260506084517 | 54 | 321 | 0.0 | 3.0 | 0.00 | 0.00 | 0.00 | 88 | 1018.3 |
| 20260506073018 | 54 | 321 | 1.0 | 3.0 | 0.00 | 0.00 | 0.00 | 87 | 1017.6 |
| 20260506071519 | 54 | 321 | 1.0 | 3.0 | 0.00 | 0.00 | 0.00 | 86 | 1017.6 |